RH
12 12 11 10 10 10 9 8 8 7 7 7 7 7 8 10 10 10 12 12 13 12 12 12 11 11 10 9 8 10 12 13 11 7 7 8 8 7 7 8 8 10 9 10 10 10 9 8 9 8 9 10 10 11 12 12 8 13 23 23 21 20 19 14 11 12 13 15 18 18 17 16 16 21 20 17 18 17 17 17 17 19 19 18 18 18 16 16
13 12 12 12 12 12 11 10 9 8 7 7 6 7 8 10 10 10 11 11 12 11 10 10 10 10 10 10 10 9 10 13 11 6 8 9 9 7 8 8 8 10 10 10 10 10 10 8 7 7 8 8 8 9 11 10 7 13 19 20 20 19 15 11 10 11 10 12 15 16 16 15 15 19 19 17 14 15 17 16 16 18 18 20 20 19 16 16
13 13 14 14 14 14 12 11 10 9 8 8 7 7 8 9 9 10 12 12 12 11 10 9 9 9 9 9 9 9 11 13 11 7 8 9 7 7 8 9 9 9 10 10 9 9 9 9 8 7 7 7 8 8 9 10 10 12 14 20 19 12 11 10 10 12 12 12 12 14 16 15 14 16 17 16 13 13 16 16 15 16 17 18 20 19 16 16
12 14 15 15 14 12 11 10 10 10 9 8 7 7 9 9 10 11 12 12 12 11 10 10 9 9 9 7 7 9 10 15 14 8 8 8 7 7 7 9 9 10 11 10 9 9 9 9 9 7 7 9 8 8 9 10 12 13 15 18 14 8 11 12 12 13 13 12 11 14 15 13 14 16 16 14 15 16 13 14 14 15 15 16 17 18 18 17
13 15 15 14 13 10 10 9 9 9 8 8 8 7 8 9 10 10 10 11 11 10 9 9 9 9 9 8 8 8 11 18 16 8 8 7 6 7 6 7 8 10 10 10 10 10 11 10 8 7 9 10 10 10 10 8 9 14 14 13 10 9 11 12 13 13 12 12 12 14 14 14 15 16 16 14 17 17 13 14 15 14 14 14 14 15 18 19
13 14 15 13 11 10 9 8 8 7 7 7 7 7 8 9 9 9 9 9 9 9 9 8 8 8 9 9 10 10 15 20 14 8 8 7 7 7 7 7 7 9 9 10 11 11 10 8 7 8 8 10 11 11 11 9 9 15 14 9 10 11 11 13 14 13 13 14 13 15 16 16 16 15 15 15 16 15 13 15 15 15 15 15 15 14 16 19
13 13 13 11 11 11 10 8 7 6 6 7 7 7 7 8 8 8 8 8 8 8 8 8 7 7 7 10 13 12 13 15 10 8 9 7 8 7 7 8 8 9 8 10 10 10 10 8 8 7 9 14 13 11 13 10 10 18 16 9 11 12 13 15 15 13 14 15 15 16 17 15 15 15 14 14 15 15 15 15 15 17 17 17 16 16 16 18
13 13 11 10 11 10 10 9 8 7 8 9 9 9 8 8 8 8 7 7 8 8 8 7 6 7 6 9 16 13 10 11 9 9 8 7 8 8 8 8 8 10 10 10 9 10 10 10 9 8 13 15 14 17 17 14 16 20 16 10 11 13 13 15 15 14 15 15 16 17 16 14 14 14 14 14 14 14 15 15 15 16 17 18 16 16 17 17
13 12 10 10 10 10 9 8 9 9 9 9 10 10 9 9 8 8 7 7 8 8 8 7 6 7 6 9 15 14 11 10 9 9 9 9 9 8 8 7 9 12 11 9 9 11 10 10 10 10 14 12 14 20 18 21 25 19 14 11 11 12 14 16 15 15 17 15 16 17 15 14 14 15 16 14 13 14 14 15 15 15 17 18 17 17 17 18
13 11 10 9 9 9 9 8 9 10 10 10 10 9 9 8 8 7 7 8 8 8 7 7 7 7 8 11 13 14 13 9 9 10 10 11 11 9 9 8 9 12 12 9 9 10 9 11 11 11 14 12 15 19 17 24 26 16 14 12 11 13 13 15 14 15 16 14 15 17 16 15 14 18 18 14 14 14 14 14 15 14 15 16 17 18 18 18
13 11 9 9 8 8 8 8 9 11 11 11 9 9 8 8 7 7 8 8 8 8 7 7 7 8 10 11 11 13 12 9 9 10 10 11 12 11 9 8 8 11 13 10 9 9 10 10 10 14 19 16 16 17 17 21 19 13 14 16 14 12 12 14 13 14 15 15 15 15 16 15 15 21 19 15 15 15 15 14 14 14 14 14 16 17 18 18
15 12 9 8 8 7 7 8 8 9 10 10 9 8 7 7 7 7 8 8 8 8 7 8 8 9 14 12 10 12 10 8 10 10 10 11 13 12 11 11 9 9 11 10 10 9 10 9 11 18 19 18 20 22 20 15 14 14 14 22 21 12 13 14 12 14 15 15 15 16 21 19 18 21 16 14 16 15 15 14 14 15 15 15 16 16 17 17
19 15 10 8 8 7 7 7 8 9 8 9 8 7 8 7 6 7 8 8 8 8 8 8 7 9 17 16 8 9 9 9 10 9 9 10 12 12 11 12 11 10 10 10 10 9 10 9 12 15 14 21 28 27 21 12 14 18 16 23 26 21 19 14 12 15 15 16 15 19 29 23 17 18 14 14 16 14 15 14 14 14 15 16 17 17 16 15
17 15 9 7 8 7 7 7 7 8 8 9 8 8 8 7 7 7 7 8 8 9 8 8 9 13 16 13 8 9 9 9 10 9 10 11 13 15 14 12 12 11 10 10 9 10 10 9 12 13 13 20 24 22 21 16 16 22 26 30 30 30 25 15 14 16 15 17 14 21 34 27 16 15 14 14 15 15 15 14 15 15 14 15 16 17 17 16
12 12 10 8 7 7 8 8 8 8 8 9 9 9 8 8 8 7 8 9 9 9 8 8 13 18 15 10 9 9 8 10 10 9 11 11 12 16 16 13 12 11 11 11 10 11 10 11 16 18 15 16 21 28 31 25 19 23 33 35 29 27 25 19 17 16 17 18 15 24 37 29 16 14 14 15 15 14 15 14 15 15 15 16 15 16 17 17
9 9 10 9 7 7 7 8 9 7 8 9 9 9 8 9 8 7 8 8 9 8 9 12 11 14 17 14 10 10 10 10 10 10 10 10 11 13 13 13 13 12 12 12 12 12 11 13 17 17 16 20 26 33 34 30 26 26 30 31 25 23 25 25 21 18 19 19 17 23 32 29 18 14 13 14 15 15 15 15 15 16 16 16 16 16 16 17
9 7 8 8 7 8 7 8 8 7 9 9 8 9 9 9 9 9 9 8 10 8 9 13 9 11 17 13 11 12 12 10 9 11 10 10 11 10 11 13 14 15 15 15 14 13 13 15 17 17 20 22 22 25 32 36 33 29 29 29 25 22 25 27 27 22 19 25 27 24 28 28 20 17 15 15 15 15 15 15 15 16 16 17 17 17 17 17
9 7 7 7 7 7 8 8 9 10 11 10 11 10 9 9 9 8 10 8 8 9 11 12 12 20 23 13 11 14 11 10 11 11 11 11 11 10 11 11 13 14 14 15 14 13 14 16 18 22 24 22 21 25 32 34 33 33 33 33 32 28 26 26 31 30 24 31 35 29 29 27 21 18 16 15 15 14 15 15 16 16 17 18 17 17 18 18
8 7 6 6 7 8 10 9 11 13 11 12 12 9 12 18 15 13 12 9 13 24 25 19 18 26 27 16 11 12 10 10 11 11 11 11 11 11 11 11 13 13 14 17 17 14 16 19 24 30 30 25 23 24 26 26 28 32 33 36 37 36 30 23 31 35 28 32 35 30 30 25 21 19 16 15 14 14 15 15 17 17 16 17 17 18 19 20
7 7 6 8 9 11 12 11 12 12 10 12 10 12 22 27 28 26 15 8 13 23 23 17 17 20 19 14 11 11 10 10 11 12 11 11 11 12 12 13 14 15 18 22 23 19 18 27 35 34 28 23 18 17 19 19 21 26 32 37 39 39 34 22 29 37 30 34 35 29 29 25 21 20 17 15 14 14 15 16 18 17 17 18 19 20 21 22
8 8 9 11 11 12 13 13 13 11 11 11 11 22 26 20 30 31 20 17 14 11 14 12 13 15 13 13 12 10 11 11 12 14 13 11 11 14 16 16 16 18 23 23 25 24 25 35 37 27 19 16 16 17 20 22 25 30 34 36 37 37 32 24 30 35 30 36 36 27 28 26 22 21 17 15 15 15 15 16 17 17 18 19 20 21 21 21
10 11 12 12 12 11 12 12 12 11 12 12 11 21 20 12 22 22 18 28 21 9 12 12 13 16 13 12 13 12 13 12 13 16 15 12 14 17 17 17 17 21 24 22 26 31 35 39 31 19 16 18 22 23 24 29 33 35 35 36 38 34 30 32 37 35 30 37 37 29 30 28 24 23 18 15 15 16 16 16 17 16 16 19 20 20 20 22
12 13 12 12 11 12 11 10 11 10 10 12 11 14 14 12 17 16 16 28 26 15 13 14 16 18 16 16 15 13 15 15 15 16 15 13 16 18 17 20 21 22 23 24 28 31 33 32 22 17 20 22 26 26 28 34 37 38 36 37 39 34 31 37 42 37 31 35 35 32 38 36 28 23 17 16 17 18 19 19 18 18 18 19 20 19 22 25
13 12 11 12 12 11 11 9 10 9 9 11 11 12 13 12 15 15 17 27 33 25 15 13 15 16 17 16 15 16 18 17 16 17 15 15 16 18 21 25 25 24 29 32 30 30 32 29 22 23 26 23 26 30 32 37 38 36 37 38 36 32 32 34 36 36 32 36 42 39 40 38 29 24 19 17 19 18 19 19 19 19 19 19 20 22 25 27
13 13 11 11 11 10 12 14 11 8 12 11 10 13 14 13 15 15 17 28 36 30 23 20 17 17 18 17 17 18 18 18 19 18 16 15 16 20 28 27 24 31 40 39 33 33 36 30 25 30 28 22 29 35 35 38 36 32 37 41 34 30 34 36 36 39 36 39 46 42 40 37 26 20 21 21 20 19 19 19 19 19 19 19 21 25 26 28
13 12 11 10 10 11 15 19 12 7 15 13 8 12 14 15 16 14 20 33 36 34 35 29 21 20 20 20 18 16 23 26 22 19 17 18 17 20 29 27 24 34 42 36 32 36 35 27 30 36 31 28 36 39 35 35 34 33 39 42 35 31 36 38 39 45 42 36 39 39 39 41 31 20 21 23 22 22 22 22 20 18 19 21 24 26 27 28
13 11 11 10 10 11 13 15 10 7 12 9 7 10 12 16 15 14 27 36 34 35 38 31 22 21 21 22 17 20 35 33 22 22 18 17 18 18 28 31 29 35 36 30 29 37 38 32 33 36 32 36 40 38 34 30 32 39 43 42 36 34 38 41 42 46 43 35 36 38 35 41 40 28 23 24 24 24 24 25 22 19 21 24 26 27 27 28
12 11 11 11 10 11 10 10 9 8 8 6 7 7 11 17 14 18 32 31 26 30 34 30 23 20 20 22 21 23 32 28 25 30 20 15 20 24 32 35 33 35 34 31 30 39 47 44 42 38 35 38 35 32 32 28 31 41 45 40 33 36 40 42 44 43 39 38 42 42 38 43 42 28 22 24 24 27 28 29 28 25 25 26 26 27 29 30
12 11 11 11 11 10 9 10 10 8 7 6 7 7 10 14 17 29 33 23 26 31 29 27 25 24 25 28 29 26 25 24 26 27 21 18 19 22 32 36 35 38 38 35 33 42 51 45 42 41 38 37 29 30 36 35 36 40 43 43 41 44 45 43 46 41 37 45 49 42 37 41 39 27 22 24 25 32 35 34 32 28 26 27 27 30 31 31
12 12 12 11 11 10 10 12 11 9 7 5 7 7 8 16 29 37 29 23 35 36 26 29 32 32 32 32 31 27 26 28 27 25 25 28 23 19 28 32 33 41 46 44 41 47 49 39 36 41 39 33 26 29 40 42 40 38 39 46 49 49 45 41 39 34 41 53 47 35 31 34 38 33 30 33 34 39 40 34 31 29 27 28 29 31 32 32
12 12 12 11 11 11 10 11 11 8 7 6 6 7 16 31 35 29 22 26 38 36 31 37 40 38 38 36 32 31 33 31 29 29 31 33 30 25 33 34 31 39 43 43 49 54 54 45 39 42 40 33 30 34 40 40 36 35 38 41 44 43 38 38 35 36 54 59 39 29 31 35 39 37 38 42 40 42 43 38 35 32 28 28 29 30 31 32
12 11 11 11 10 10 9 10 9 7 7 7 5 10 27 36 28 21 24 29 34 36 37 40 41 41 42 41 38 39 41 37 34 35 34 36 35 35 44 40 33 39 36 33 41 47 55 58 48 43 40 35 37 40 42 43 37 37 38 37 43 46 39 42 43 43 54 50 33 29 34 38 35 32 37 38 35 38 38 34 32 30 27 27 28 30 32 33
11 11 10 10 10 10 9 9 8 8 8 6 6 18 29 26 24 27 26 26 31 34 39 44 43 44 45 42 42 44 44 43 41 38 37 39 38 42 50 46 41 42 34 30 32 32 45 58 52 48 45 38 37 36 37 41 38 37 36 35 44 49 45 47 44 41 46 41 30 29 34 40 36 29 32 31 29 31 28 26 28 26 27 29 29 31 33 35
11 12 11 10 10 9 10 9 8 8 7 5 13 27 29 20 24 32 27 29 36 35 42 48 42 43 45 40 42 43 39 42 42 38 41 42 36 35 40 43 46 41 31 31 30 27 37 47 49 51 47 43 41 37 36 38 38 35 29 30 39 44 48 52 47 48 52 44 35 34 36 41 40 34 31 28 26 26 24 24 26 26 28 30 31 34 37 38
11 11 10 10 10 9 10 8 8 9 6 10 23 31 29 21 20 26 29 34 36 35 41 44 40 42 42 35 40 41 33 34 38 38 40 36 30 29 30 37 44 39 36 38 32 30 33 37 48 49 39 38 41 39 38 39 39 32 25 32 41 39 40 47 47 44 48 49 46 44 40 33 32 33 30 29 29 25 24 25 25 28 30 31 34 37 39 41
10 10 9 10 9 8 10 8 9 9 6 18 31 29 26 26 25 31 40 43 40 39 41 42 40 38 34 31 36 38 35 34 38 37 30 26 31 34 34 41 45 39 39 39 35 37 36 36 48 49 39 36 37 37 39 40 40 32 27 35 40 34 33 44 50 40 41 55 50 41 40 31 30 36 32 31 33 29 28 28 26 30 32 34 38 40 41 43
10 9 9 9 9 10 9 8 10 8 10 24 33 29 28 32 36 45 49 45 42 40 38 36 33 28 25 28 28 29 35 37 36 33 23 24 34 36 37 45 44 35 34 36 36 37 38 38 42 47 49 40 32 35 39 38 39 35 34 39 38 37 33 37 51 52 52 60 47 34 39 36 36 44 39 32 34 32 33 32 30 33 36 38 41 42 44 43
8 9 12 11 11 10 10 10 10 9 17 29 30 30 36 41 46 52 49 47 47 44 37 31 29 28 26 27 28 28 31 32 32 30 24 24 32 36 38 43 41 35 33 38 39 34 35 42 40 41 47 42 35 42 44 39 37 35 38 39 37 46 46 40 49 58 63 66 52 39 41 39 39 43 37 33 34 34 35 37 36 38 38 40 43 45 45 42
8 13 21 17 11 12 12 10 10 14 25 34 33 34 43 52 55 47 41 50 54 44 37 33 29 30 29 30 35 33 31 32 31 29 27 25 32 41 39 36 39 40 35 37 40 35 34 43 44 41 43 40 36 41 43 41 39 36 36 36 33 40 46 46 48 51 59 65 58 51 50 44 38 35 31 33 36 39 42 41 42 41 40 42 45 45 44 42
8 17 28 18 10 13 12 12 19 28 33 35 36 40 46 56 61 48 37 51 59 44 39 42 36 33 35 35 37 33 32 35 31 28 29 26 32 44 46 43 45 42 36 38 41 38 35 38 42 43 44 39 36 37 35 35 40 40 41 43 42 39 38 46 50 45 49 58 59 61 59 46 34 29 30 34 37 41 45 45 45 43 42 44 45 45 45 41
8 22 29 16 10 12 13 22 31 33 35 35 41 53 57 59 62 56 43 46 55 46 40 47 45 42 42 40 38 35 33 35 31 27 29 27 30 43 51 57 59 49 41 41 41 41 39 37 39 40 38 35 35 37 33 34 38 38 38 40 42 42 42 52 59 51 48 56 60 65 67 51 33 26 29 33 37 42 45 47 47 45 43 45 45 46 45 40
15 29 26 12 12 11 17 36 37 29 35 40 45 56 61 60 58 56 51 48 52 49 44 47 47 44 44 43 41 37 34 37 35 29 29 30 37 49 52 53 57 51 42 39 38 38 37 37 42 41 34 32 35 34 33 38 40 36 33 31 32 38 41 52 65 61 57 59 54 60 70 55 31 25 31 35 39 44 46 46 45 44 44 45 46 47 45 43
25 29 21 13 13 11 22 44 42 36 43 47 50 53 54 57 55 52 53 53 52 50 46 45 46 44 44 44 40 37 36 38 36 33 32 34 47 60 58 53 52 45 42 44 41 37 37 40 47 45 36 34 37 33 29 35 39 36 33 29 33 44 50 55 60 58 63 64 54 60 71 52 29 28 32 35 42 48 47 45 44 44 44 46 48 47 44 47
22 22 19 14 12 16 33 48 44 40 44 48 54 56 50 52 57 55 53 51 48 47 45 43 44 44 43 42 40 40 39 37 36 37 33 31 45 60 58 54 49 41 45 53 46 42 44 42 46 50 46 41 40 39 38 39 36 31 31 33 41 56 67 62 52 55 66 61 51 64 70 48 31 32 35 39 48 50 47 44 43 44 47 49 50 48 46 49
21 24 23 15 11 17 33 42 39 37 41 43 49 53 50 52 56 52 51 52 47 43 45 45 43 43 42 42 45 45 43 40 37 38 34 30 44 62 59 48 45 46 50 49 41 45 51 44 41 52 58 52 49 50 48 45 39 33 35 41 45 55 64 58 53 66 75 61 53 63 66 50 35 36 46 52 53 51 47 45 44 46 50 51 50 49 47 50
21 30 32 26 18 18 22 26 30 36 40 40 43 46 46 51 54 46 46 55 51 43 47 46 41 43 42 44 49 46 43 46 42 39 39 37 44 60 60 50 52 59 55 43 36 42 51 46 41 47 53 51 48 48 44 41 41 39 41 47 51 57 60 56 62 72 70 67 67 60 57 58 48 45 58 60 53 51 48 44 47 50 52 54 51 49 49 53
24 35 36 31 29 29 29 29 32 38 40 38 40 43 39 42 50 46 47 55 49 42 48 47 44 48 46 46 50 43 39 45 44 43 44 39 39 48 53 57 64 63 54 46 40 41 50 56 52 49 51 49 45 42 39 40 40 39 41 47 56 66 63 59 68 67 58 73 78 55 49 62 56 52 64 62 53 52 48 47 51 53 54 54 50 48 54 62
27 31 25 26 38 43 40 39 38 41 42 37 38 44 41 39 44 43 45 49 46 44 48 49 51 53 49 46 47 45 41 41 46 53 48 38 39 44 51 63 68 58 50 46 39 39 51 62 62 57 52 47 44 41 40 42 40 38 41 42 49 67 71 66 68 61 54 71 74 54 53 61 55 55 62 57 50 50 48 49 52 53 54 52 49 53 64 69
22 25 20 21 35 38 32 33 36 43 46 38 38 45 43 42 44 42 40 44 49 49 45 45 49 47 42 42 43 45 46 44 50 58 51 43 47 50 52 61 62 53 46 42 35 36 50 63 65 64 59 50 46 44 42 42 40 38 42 42 43 59 69 67 65 57 52 60 60 53 58 59 53 56 58 49 45 47 48 51 54 53 51 50 55 66 70 63
20 25 21 22 31 29 26 30 35 44 45 35 38 47 42 41 46 44 38 39 45 49 46 47 52 47 43 44 45 47 52 55 60 61 54 53 57 54 50 51 51 48 43 40 38 37 48 61 57 54 59 55 44 41 40 41 42 39 40 42 42 48 53 56 58 56 58 65 60 57 68 66 54 51 50 45 45 48 52 56 57 53 50 56 67 70 62 56
14 16 16 26 35 30 28 32 34 42 44 36 41 47 43 45 48 47 46 42 39 46 51 52 56 53 47 48 52 56 60 62 63 62 60 61 60 54 50 47 48 51 50 49 50 44 49 59 52 48 64 60 41 41 45 42 42 44 47 49 45 46 52 54 55 55 60 67 67 69 77 74 58 49 47 45 47 52 57 59 57 51 53 64 69 61 55 61
11 13 12 21 32 30 29 32 32 37 39 38 43 45 42 44 44 44 50 45 37 42 46 45 52 57 52 53 60 62 56 54 56 57 57 58 56 52 51 49 49 55 58 57 59 56 57 63 58 57 70 61 40 43 48 44 52 63 68 64 54 52 60 60 57 55 52 57 70 79 77 66 54 51 51 51 52 58 63 61 55 52 58 65 61 55 60 73
Wind_Speed
9 9 10 10 10 10 10 9 8 6 5 4 5 6 4 5 6 7 7 7 6 7 7 7 7 7 7 5 7 9 11 13 9 9 9 11 11 8 5 4 3 3 4 5 8 11 11 7 4 5 4 3 1 2 3 3 5 3 2 3 2 3 3 3 5 5 2 3 5 7 8 6 3 7 7 6 9 12 11 12 13 13 16 15 13 15 15 13
9 9 9 10 10 10 9 8 7 5 4 3 4 5 4 4 6 6 6 6 5 5 5 6 6 6 6 4 4 5 8 10 6 10 13 12 10 7 4 2 2 3 4 5 6 8 9 7 6 6 5 4 0 1 1 2 5 2 2 2 3 3 4 5 7 7 5 4 4 6 6 6 2 6 7 4 7 11 10 12 14 15 16 15 16 20 20 19
9 9 10 10 10 9 8 8 7 6 5 5 5 5 5 5 6 6 6 6 6 5 5 5 6 6 7 6 4 1 5 5 4 10 12 10 8 5 3 2 2 3 4 5 6 6 6 6 6 7 7 3 1 2 1 3 4 1 2 1 3 2 4 8 9 7 7 5 2 5 4 4 2 3 6 4 7 8 9 11 14 16 17 17 19 21 20 19
9 10 9 9 9 8 8 7 6 7 7 7 7 6 6 6 5 5 5 6 7 6 5 5 6 8 9 9 4 3 2 2 5 11 10 9 7 4 3 3 3 3 4 5 5 7 7 7 6 7 8 3 1 0 1 4 3 3 3 1 3 3 3 7 8 6 6 6 2 5 3 3 4 4 6 6 6 6 9 9 10 13 14 13 16 20 22 20
8 8 8 9 9 8 7 7 7 6 7 7 7 6 6 4 4 4 5 6 6 7 6 7 7 9 12 11 3 3 3 1 4 9 8 6 6 5 4 3 3 3 3 4 6 8 8 8 6 6 7 2 2 1 3 5 3 2 3 4 5 6 3 4 5 4 4 4 1 3 2 2 2 5 8 9 7 8 8 5 5 9 9 8 8 11 18 22
7 7 8 8 9 8 7 7 7 6 6 6 5 4 3 2 3 4 5 6 6 7 7 8 8 7 10 10 8 5 1 1 4 8 6 4 5 7 6 4 4 3 3 4 6 8 8 7 6 6 5 1 4 2 3 5 3 1 2 4 6 5 3 3 2 3 3 2 1 1 2 2 4 8 11 13 16 18 14 9 9 11 12 12 11 9 12 19
6 7 7 8 8 8 7 7 6 5 6 6 4 3 2 1 2 4 5 6 7 7 8 9 8 7 6 7 9 8 6 3 4 6 4 4 7 8 7 6 5 5 6 5 5 6 6 7 5 5 4 1 4 4 4 5 3 2 2 3 3 4 3 3 2 3 2 1 2 2 4 5 8 9 10 15 21 21 18 16 15 16 18 18 19 18 15 16
6 6 7 8 9 9 8 6 5 5 6 7 5 3 2 1 2 4 5 7 7 5 8 10 9 7 5 3 5 5 6 4 4 5 5 6 9 9 8 7 6 8 8 6 6 6 5 7 7 6 3 2 2 3 4 4 2 3 2 3 2 3 3 3 3 3 3 3 4 4 7 9 12 10 12 21 24 20 19 19 16 16 18 18 17 16 16 17
5 6 7 7 9 10 9 7 5 6 7 7 6 4 4 2 2 3 5 7 5 3 7 12 10 7 4 3 1 2 2 4 3 5 7 8 10 11 8 7 7 7 6 5 6 6 4 5 6 5 2 4 2 2 4 3 1 2 2 3 3 4 4 4 4 5 4 5 4 5 8 10 11 9 13 22 20 14 13 15 14 14 16 17 15 12 13 16
5 5 6 7 9 10 10 8 5 5 7 7 7 5 4 3 2 3 5 7 5 4 7 11 9 6 6 3 4 3 1 2 2 5 7 9 10 9 7 7 7 7 6 7 6 4 4 3 2 3 2 3 3 2 3 2 2 1 2 2 2 4 5 5 5 5 5 6 5 6 9 11 8 3 7 11 7 7 8 9 12 12 14 15 13 11 11 13
3 4 5 6 8 10 11 9 6 4 4 5 5 5 3 2 2 3 5 6 7 6 6 9 8 5 6 4 4 1 3 2 2 4 6 8 9 8 8 8 8 7 5 6 6 4 3 2 1 1 1 2 2 2 1 2 3 1 2 3 4 5 5 6 6 4 4 4 4 8 12 13 6 4 10 12 8 8 6 7 10 10 12 11 10 10 10 12
2 2 3 5 6 9 10 9 7 4 3 3 3 3 3 3 3 4 5 6 7 6 6 7 6 6 5 3 2 2 3 2 1 3 6 8 8 8 9 10 8 7 5 6 6 5 4 3 3 2 1 1 1 2 1 3 1 2 3 3 4 6 5 7 6 4 3 0 2 9 10 7 7 9 14 12 12 10 7 8 9 11 12 10 9 8 9 10
1 2 2 3 5 8 10 9 7 4 3 3 3 3 3 4 4 4 5 6 7 6 6 6 4 5 3 2 3 2 2 1 2 4 7 9 8 7 9 10 8 7 6 6 6 5 4 3 3 1 1 2 1 2 2 3 1 2 3 3 3 3 4 7 5 3 4 1 4 6 5 3 7 16 13 9 13 11 8 9 8 11 12 11 10 8 8 9
0 1 2 3 4 7 10 10 7 5 4 3 3 4 4 5 5 5 5 6 6 5 6 5 4 5 3 1 2 1 2 2 4 5 7 8 9 8 9 11 9 7 7 6 6 5 5 4 4 2 2 2 2 3 2 3 2 2 1 1 3 2 2 6 5 4 3 1 1 3 2 5 4 11 15 12 13 11 9 10 8 10 10 9 9 7 8 8
2 1 3 2 3 6 9 10 8 5 4 4 4 5 6 6 5 5 6 6 5 4 5 5 5 3 1 1 1 2 3 4 4 6 6 7 7 4 5 9 8 7 7 6 6 6 5 4 3 1 2 2 2 2 2 3 3 2 1 2 2 1 1 4 3 3 1 1 4 0 2 7 8 3 14 15 13 12 11 10 9 9 9 8 7 6 6 6
3 3 3 2 2 6 9 9 9 6 5 5 5 6 6 6 6 6 6 6 5 4 4 3 3 2 1 1 2 3 3 5 5 6 6 6 6 4 5 8 8 8 8 7 7 6 6 4 0 1 2 2 1 2 3 2 2 2 2 2 2 2 1 1 1 2 1 0 4 4 1 6 7 2 10 14 14 14 12 10 8 6 6 6 5 5 4 4
4 3 3 2 3 6 9 9 9 7 6 7 6 7 7 6 6 5 6 6 5 5 3 3 2 0 1 1 1 2 5 6 6 6 6 6 7 7 8 7 6 8 9 8 7 5 3 1 1 2 3 3 2 2 3 2 1 1 1 3 4 3 3 2 1 1 2 1 3 5 4 9 11 9 12 15 14 15 14 11 5 3 2 3 4 4 3 2
3 2 2 3 4 6 8 7 8 8 8 8 8 8 7 6 6 6 7 7 6 5 3 3 2 1 1 0 1 3 6 6 6 6 7 7 7 8 8 6 5 7 7 8 5 2 2 2 2 2 2 4 2 1 1 2 1 2 4 3 4 4 4 5 2 2 3 3 3 4 6 11 15 14 14 15 13 12 11 5 2 2 2 4 5 4 4 5
3 3 3 4 4 6 7 6 6 10 11 10 8 7 6 6 6 5 6 7 4 2 2 2 2 0 0 1 3 5 6 6 6 6 7 8 8 9 8 6 5 6 7 5 3 3 2 1 3 2 2 2 1 2 1 2 1 3 4 2 5 4 5 7 1 2 1 1 4 7 7 11 16 12 9 15 12 5 2 5 5 4 5 7 8 8 9 12
4 4 4 4 5 6 7 4 6 11 12 9 7 6 6 7 4 2 6 8 4 2 1 2 3 2 1 3 4 5 6 6 5 6 8 8 9 10 6 4 5 5 5 2 1 1 2 2 4 2 1 2 3 2 1 2 1 3 3 3 6 5 6 7 1 3 2 1 5 7 7 11 16 12 9 12 3 6 5 8 8 7 9 11 12 12 13 13
4 4 4 5 5 6 7 5 7 11 12 8 6 6 7 7 3 1 6 6 4 3 2 2 2 2 1 3 5 5 5 5 4 5 8 9 9 7 4 2 5 4 2 0 1 0 1 2 2 2 3 3 4 3 2 1 1 3 3 5 6 5 6 3 3 3 2 1 4 7 8 12 15 12 11 9 4 8 8 11 11 11 13 13 14 13 12 11
4 4 5 5 7 8 7 8 8 10 11 8 7 5 5 6 4 4 6 3 2 2 1 2 2 2 3 4 3 6 6 4 3 4 8 10 6 3 5 5 4 2 0 2 2 1 2 2 1 3 3 3 3 2 1 1 2 3 3 4 5 4 4 2 4 3 3 2 5 8 6 11 16 13 9 3 8 9 9 12 11 13 14 14 14 11 11 13
5 5 5 6 8 8 9 9 9 9 10 8 7 6 5 6 5 5 5 4 3 2 1 1 2 2 5 3 4 8 6 3 2 4 8 9 5 3 7 6 3 5 3 2 1 3 3 1 3 2 1 1 1 2 1 2 3 4 5 4 5 2 2 1 1 0 2 3 6 8 6 10 14 8 1 5 11 11 10 12 11 12 13 14 13 10 13 17
5 5 6 7 8 7 8 9 10 10 10 9 8 8 7 6 5 6 6 4 2 1 1 1 1 2 3 4 6 7 4 4 4 6 9 8 6 5 5 2 3 4 2 2 3 4 4 2 3 1 1 2 2 2 3 4 3 5 6 4 5 2 2 2 2 4 6 5 4 5 5 7 5 4 4 5 9 10 10 11 11 12 14 13 11 13 17 18
5 5 6 7 7 7 7 8 12 12 10 10 11 10 8 6 6 7 5 3 2 1 1 1 1 2 3 4 6 6 5 5 4 8 10 9 5 4 3 1 2 1 2 3 3 5 3 1 1 1 2 2 3 3 4 4 3 3 2 1 2 3 3 3 6 6 5 3 1 2 4 4 1 4 6 5 5 7 8 9 11 12 12 10 12 18 18 15
5 4 5 7 7 7 7 7 11 13 10 11 13 11 9 7 7 7 4 1 1 0 0 1 1 2 4 5 7 9 6 2 5 8 8 5 3 3 3 2 3 0 2 1 3 2 1 1 0 1 2 2 3 5 5 5 2 4 2 4 5 4 3 4 5 3 2 4 3 2 2 3 4 3 5 8 6 6 7 7 11 14 12 12 18 19 15 12
4 4 4 6 7 8 8 7 10 12 11 12 13 12 10 7 8 7 3 1 1 1 1 1 2 2 3 6 9 8 3 4 8 6 4 4 4 3 3 1 1 1 0 1 2 1 2 2 0 1 2 2 3 4 3 4 2 3 3 2 3 2 3 4 3 2 3 5 5 5 4 2 5 4 4 9 8 8 7 6 9 11 12 17 20 17 13 12
2 3 3 4 6 8 8 9 11 13 13 13 14 13 10 9 9 6 2 1 1 1 1 1 2 3 5 9 10 3 2 6 6 2 5 7 5 0 3 3 2 2 1 1 2 1 1 1 3 2 2 3 2 1 2 1 1 1 1 1 1 3 4 4 2 4 4 4 5 4 5 2 4 2 3 5 8 8 6 4 6 11 17 19 17 15 13 11
2 3 3 4 5 7 9 9 11 13 14 15 14 13 11 9 7 2 0 2 1 1 1 2 2 4 8 9 5 1 2 3 2 5 9 7 3 1 3 5 3 3 3 6 5 2 1 1 2 1 2 2 1 2 4 2 1 0 0 1 4 4 3 2 3 4 4 3 4 4 5 2 4 2 2 2 4 5 5 6 8 13 18 16 15 14 12 11
3 4 5 5 6 8 10 10 12 14 15 15 15 15 13 8 3 1 1 2 1 2 2 2 2 5 8 6 1 0 1 1 3 9 8 3 3 4 5 6 3 2 4 5 5 2 2 2 0 1 0 1 2 1 1 3 2 2 2 4 5 3 2 2 4 2 2 3 2 1 2 1 2 1 2 1 2 4 6 5 6 11 16 14 13 12 12 12
5 6 7 7 8 9 10 11 12 14 15 15 15 16 11 4 0 0 2 1 1 2 2 1 2 3 5 4 1 2 3 2 5 6 4 2 3 3 3 4 2 2 2 2 3 1 2 1 0 1 1 1 2 0 2 3 3 1 2 3 3 1 1 1 2 1 1 2 1 1 2 2 2 0 2 2 4 5 6 6 6 9 12 11 11 12 12 13
6 7 8 8 9 10 11 12 13 14 14 14 15 14 7 1 0 1 2 1 1 3 2 1 1 3 4 2 1 3 3 2 4 3 1 2 2 1 2 2 2 2 2 2 3 1 1 1 1 2 1 0 1 1 1 1 0 2 3 3 3 2 1 1 1 1 2 2 2 1 2 2 3 2 5 5 6 6 7 8 8 9 11 12 14 13 13 15
7 8 8 9 9 10 11 12 13 14 13 13 14 10 3 1 1 0 2 3 1 2 1 1 3 3 3 3 1 2 1 1 2 2 0 1 1 1 3 3 3 1 1 3 5 3 2 2 1 2 1 0 1 1 1 1 1 2 2 1 2 2 2 3 3 3 3 1 2 1 1 3 4 2 6 7 7 8 11 11 10 13 14 13 15 15 15 18
9 10 10 11 11 11 12 12 13 13 12 12 11 5 2 2 1 1 1 2 1 2 1 1 4 3 1 1 1 2 1 1 1 2 1 1 1 0 3 4 5 2 2 3 3 2 2 2 1 1 0 1 1 1 1 1 2 2 1 2 0 1 2 3 2 2 4 3 2 1 0 3 3 2 6 9 11 11 12 11 12 16 16 15 16 17 18 21
11 11 11 11 11 12 12 12 12 11 10 9 6 1 1 2 2 2 1 1 1 3 3 1 2 3 1 1 0 1 2 0 1 2 2 2 1 2 2 4 5 4 2 2 2 2 2 3 0 1 0 0 1 1 1 0 2 1 1 2 1 1 1 2 3 4 5 5 3 2 2 3 1 4 7 10 10 10 11 12 14 17 17 17 17 18 20 24
10 11 10 10 10 11 11 10 9 8 7 6 3 1 1 1 1 2 1 2 1 3 6 3 1 2 2 1 1 1 1 1 2 3 2 1 3 4 3 2 4 5 3 1 2 2 2 3 2 2 1 2 1 1 1 1 1 0 1 1 2 3 1 1 4 4 3 4 3 3 3 1 3 3 5 6 5 7 9 11 14 17 17 16 16 18 21 26
9 10 10 9 9 9 8 7 7 5 4 4 1 1 1 1 0 2 2 3 1 1 4 3 1 1 2 2 1 2 1 2 2 2 2 0 2 3 2 2 3 4 4 2 1 1 2 4 2 2 1 0 1 3 3 1 1 0 1 3 3 1 2 1 2 2 2 3 3 3 3 3 1 2 3 3 5 5 6 9 13 15 15 15 17 21 24 29
9 9 8 7 7 7 7 6 5 3 3 2 1 0 1 1 1 2 2 2 2 1 1 2 0 2 3 3 2 3 2 3 4 3 3 2 1 2 2 2 3 3 4 3 1 1 3 4 2 1 0 2 1 2 3 2 1 1 3 4 1 1 1 0 1 1 2 4 3 3 4 5 3 2 3 2 5 6 7 8 9 12 16 19 22 25 28 31
7 6 4 6 7 7 7 5 3 2 1 2 1 1 1 1 2 2 3 2 1 2 1 1 1 1 1 2 3 3 1 2 4 3 2 2 2 3 3 1 1 2 4 3 1 2 3 2 2 2 0 2 2 1 1 1 1 1 3 3 1 1 2 1 1 0 2 3 4 3 3 1 1 2 3 4 7 9 9 8 8 14 20 22 23 25 28 32
6 4 3 5 8 8 6 5 3 2 1 1 2 1 1 1 2 2 3 2 1 2 1 2 2 2 2 2 2 2 0 1 2 2 1 2 2 3 4 4 3 2 3 3 1 2 2 2 3 2 1 0 1 2 1 1 2 1 1 1 1 2 1 1 1 2 2 4 3 3 3 1 1 1 5 9 9 9 10 9 9 15 19 19 21 24 27 32
4 2 2 6 8 8 6 4 4 3 1 2 2 2 1 1 1 2 3 2 1 1 2 2 2 1 3 3 2 1 2 3 2 2 2 2 3 2 3 4 4 4 3 2 1 1 1 3 4 3 4 3 2 2 1 1 0 1 1 2 2 2 1 2 3 1 1 2 2 2 4 2 2 2 8 9 8 9 12 12 10 14 18 19 21 24 29 31
4 2 4 8 8 6 4 3 3 3 2 2 1 1 2 1 1 2 3 2 1 1 1 1 1 1 1 2 2 2 2 3 3 2 1 1 2 1 1 2 4 3 2 1 1 1 0 2 3 5 6 4 1 1 2 4 3 1 1 1 1 1 2 1 4 1 1 2 1 1 4 4 1 5 9 9 10 14 17 16 15 17 19 21 23 26 29 28
4 4 6 8 7 5 3 2 2 2 2 2 1 1 2 2 1 1 2 1 1 1 1 1 1 1 2 2 3 3 3 2 3 1 2 2 0 2 2 2 3 2 1 1 0 1 1 2 2 5 6 1 2 1 1 3 3 2 1 0 1 1 1 2 2 0 0 2 2 2 4 3 2 6 11 12 16 17 18 18 18 18 18 20 23 27 29 27
4 5 5 7 7 4 3 2 2 2 2 1 1 2 2 2 2 1 1 2 2 1 2 1 2 2 2 3 2 2 2 1 1 1 1 2 1 3 2 1 2 1 1 1 1 3 1 1 1 3 5 2 2 1 2 2 2 1 1 2 3 3 4 3 1 1 1 5 5 4 3 2 1 6 14 15 15 15 16 19 19 18 19 22 25 28 30 28
5 3 3 7 9 6 4 3 2 2 1 1 1 1 1 1 2 1 1 2 2 2 2 1 2 2 2 1 1 3 3 3 2 1 1 2 1 2 2 1 2 1 2 2 1 2 2 2 1 2 4 4 4 2 1 2 2 2 1 1 2 3 4 2 1 1 2 3 3 4 4 3 6 11 14 13 13 13 16 21 21 20 22 26 28 30 31 28
3 2 3 5 8 9 8 6 4 2 1 1 1 1 2 1 1 1 1 1 2 2 2 2 1 1 2 1 2 4 4 5 5 2 2 2 2 1 1 1 1 2 3 2 1 1 2 3 3 5 6 6 6 5 3 3 4 6 6 3 2 3 4 2 1 1 2 3 3 4 4 8 11 11 9 9 11 10 13 19 21 22 25 27 30 32 30 25
2 1 2 3 4 6 7 7 7 4 1 2 1 1 3 2 1 1 1 0 1 2 1 2 2 1 2 1 2 4 2 3 5 5 4 3 2 1 1 1 1 2 3 2 1 0 2 4 4 5 9 8 8 9 8 7 7 9 9 5 4 5 4 4 3 3 3 3 4 4 8 12 12 9 8 8 9 8 11 17 20 23 26 28 31 31 26 24
3 1 2 1 2 2 2 5 7 4 3 3 1 1 2 2 1 1 1 0 1 1 1 2 3 3 4 2 2 3 3 3 4 3 1 1 1 2 1 2 1 2 2 1 1 1 1 4 1 1 7 8 8 11 11 9 8 7 7 7 3 6 6 5 5 5 3 3 6 7 10 12 10 8 6 8 11 12 15 19 22 24 27 31 32 26 23 26
3 2 2 2 2 2 1 3 4 3 2 2 2 2 2 3 2 0 1 1 1 2 2 2 1 0 2 2 1 2 4 4 4 1 1 1 3 3 3 1 1 3 3 2 1 1 1 3 0 1 5 10 11 11 9 7 6 5 6 7 2 4 7 7 5 5 4 4 6 9 11 11 6 5 6 12 18 19 20 22 24 27 31 32 27 24 26 31
3 2 1 2 3 3 3 3 3 1 0 1 1 1 2 2 1 1 1 1 1 1 1 2 3 4 4 3 3 4 3 4 4 3 1 2 3 2 1 1 1 2 3 1 1 0 1 1 1 0 4 9 9 6 4 5 6 6 6 5 1 2 2 3 2 3 4 6 7 9 10 9 4 10 13 18 22 22 22 22 24 28 31 27 24 26 31 35
2 2 1 1 1 2 3 2 2 1 1 2 2 2 2 1 1 2 2 2 2 2 1 4 6 6 5 5 5 3 3 4 4 5 3 3 4 3 2 2 4 1 2 0 1 0 1 1 4 3 3 6 4 2 3 6 7 4 5 5 1 2 3 3 3 5 6 7 9 9 7 5 5 13 15 17 21 22 20 21 26 30 27 22 24 31 36 35
3 2 1 1 0 2 2 3 2 1 1 1 2 1 1 2 3 4 2 1 1 2 3 5 6 5 4 4 4 3 6 8 9 10 9 9 9 9 8 6 4 2 2 0 0 1 1 2 3 3 4 4 3 3 6 7 5 1 4 7 5 5 6 6 6 7 7 6 6 6 5 5 8 12 12 14 17 18 18 22 29 29 23 23 30 36 36 33
Wind_Direction
103 100 98 94 90 87 87 90 96 104 100 73 44 32 54 100 97 91 77 65 54 46 44 37 36 35 41 46 58 73 83 75 26 360 23 13 360 356 5 7 358 11 20 19 22 16 2 6 343 318 314 272 238 324 316 349 317 300 271 254 304 12 56 3 20 28 320 112 133 164 170 212 176 158 205 230 225 232 239 245 244 238 244 244 243 249 241 229
105 100 94 89 83 79 76 78 83 86 80 52 33 29 51 104 104 91 69 52 39 31 25 21 23 18 20 4 6 62 93 86 20 3 26 7 339 340 358 6 2 14 6 2 20 11 351 356 344 321 295 254 199 311 252 327 308 299 295 302 14 33 56 25 39 36 3 58 120 152 177 225 153 141 182 218 234 228 231 240 239 235 240 238 238 249 252 243
104 97 89 82 75 71 68 68 71 71 68 53 49 54 73 104 101 81 56 44 35 25 17 17 18 5 354 334 324 78 98 88 2 1 17 1 339 340 354 10 8 7 359 354 5 6 352 351 338 321 300 267 59 313 269 336 313 343 328 3 53 64 76 45 48 49 24 29 101 140 167 231 221 152 170 218 262 249 242 240 230 230 234 232 234 246 257 253
100 92 80 69 64 60 59 62 66 68 69 66 66 76 90 102 88 61 42 33 25 19 19 16 15 14 2 344 315 213 155 89 8 2 6 358 354 356 357 10 9 5 356 347 358 6 358 343 326 315 297 264 97 313 19 3 340 10 349 48 38 357 62 56 51 55 36 20 48 126 144 247 236 201 195 233 276 256 254 256 234 236 243 236 233 240 248 251
90 79 64 56 52 46 50 61 69 70 69 72 75 86 101 97 66 38 19 11 14 14 16 11 7 23 21 12 36 188 244 226 4 359 359 357 8 22 20 20 11 0 348 350 3 354 335 319 298 283 274 254 72 100 41 7 347 24 32 68 37 3 49 79 62 74 60 22 42 131 162 271 240 224 227 236 247 244 261 299 261 246 251 237 218 232 242 242
75 62 52 47 41 37 45 58 70 70 66 69 76 90 99 79 30 3 356 351 357 3 12 10 360 15 26 36 69 82 30 226 356 357 358 5 27 34 32 32 16 3 358 6 1 342 326 310 281 274 280 357 36 38 38 0 342 31 78 74 47 25 64 103 97 117 87 15 227 170 262 295 281 264 254 241 241 249 260 280 281 268 256 247 241 250 251 238
73 60 48 41 38 36 37 47 63 63 58 56 67 94 94 48 344 339 341 340 346 5 25 15 359 355 5 45 70 72 79 89 7 0 4 26 37 36 34 30 20 21 15 13 8 353 345 334 324 324 321 60 32 35 26 340 348 43 116 97 64 62 90 134 157 168 146 280 257 274 277 276 267 271 277 256 250 255 259 261 267 271 267 264 263 263 253 235
79 68 52 43 41 37 30 40 57 58 56 53 62 95 107 74 334 340 341 342 349 25 34 13 5 358 344 57 92 92 77 54 16 10 21 36 36 34 34 26 29 33 19 26 29 8 354 354 1 343 332 102 30 37 23 345 24 36 99 126 117 108 125 155 173 188 200 242 249 264 260 261 261 270 281 269 266 265 263 262 259 262 267 270 271 264 245 231
80 71 59 51 47 40 32 40 61 63 60 60 67 85 101 96 28 1 348 350 355 15 11 6 13 14 26 93 190 180 71 24 24 30 35 39 32 29 28 26 41 42 21 35 35 13 21 26 23 5 37 82 31 54 23 351 53 26 97 145 173 159 154 167 189 193 214 237 232 254 258 261 265 273 277 271 273 267 255 255 250 247 254 265 272 265 244 232
75 70 63 57 53 48 38 42 64 68 64 65 67 67 78 85 51 6 355 357 352 330 342 1 16 26 49 52 284 260 237 326 26 35 40 42 35 29 27 30 45 51 22 20 21 15 53 52 32 24 64 79 59 67 355 310 153 105 157 219 211 171 170 186 215 206 225 247 237 259 270 266 262 256 268 263 248 235 234 232 236 239 243 258 266 259 248 238
76 73 67 59 55 51 42 41 51 60 62 54 49 46 44 45 20 354 356 359 354 344 342 360 16 47 54 355 297 240 227 256 9 18 33 39 36 28 30 34 39 52 30 15 23 26 42 53 54 39 106 106 92 94 10 169 159 192 206 255 219 191 189 199 222 216 232 250 239 275 281 265 234 196 248 243 226 234 237 224 231 244 251 259 259 249 245 243
66 58 64 62 54 50 41 33 35 43 41 22 10 12 357 336 334 336 345 353 359 356 354 7 26 72 74 342 353 119 222 253 339 353 25 32 29 27 33 32 29 46 44 22 25 27 24 35 44 34 77 92 150 127 146 171 172 259 232 269 217 194 198 201 205 202 220 240 310 299 294 259 191 215 249 236 226 234 229 230 237 245 252 259 257 247 242 244
310 353 44 66 51 43 34 24 24 26 22 8 348 333 320 311 310 319 340 353 356 357 5 17 43 77 81 342 45 101 237 284 318 351 24 20 14 20 28 26 20 28 32 24 18 20 18 30 50 33 128 76 123 151 190 184 200 253 222 272 245 204 196 187 180 184 205 193 338 327 320 300 204 217 232 210 210 217 218 233 241 247 248 244 240 245 252 253
247 304 40 55 40 33 26 18 14 14 14 2 357 346 332 323 308 308 333 349 349 356 17 36 72 73 64 43 72 54 299 306 326 358 17 10 8 12 7 5 9 13 13 12 8 11 8 29 63 89 137 91 133 170 193 179 209 230 147 269 241 249 191 164 166 186 193 156 358 353 263 287 290 221 214 196 200 204 215 237 254 263 262 245 224 227 252 259
54 40 43 34 16 20 16 10 7 6 2 356 359 357 347 334 313 309 323 339 340 343 18 53 75 65 52 75 21 327 316 310 326 354 358 355 8 15 338 338 351 4 2 355 353 357 9 41 71 76 116 107 134 178 234 186 203 211 107 301 243 259 183 164 178 189 202 129 170 187 249 276 319 243 192 190 200 209 222 247 271 276 272 261 230 214 244 259
37 30 31 6 336 1 0 356 356 354 349 345 341 342 343 330 313 307 315 324 316 312 338 26 53 41 158 97 343 327 323 322 324 338 341 337 342 334 316 330 340 345 346 350 358 359 15 44 40 254 175 182 180 231 277 222 202 212 209 289 308 307 292 199 204 193 261 18 184 198 252 281 300 143 179 204 214 214 227 248 270 287 275 257 235 214 232 252
29 26 17 345 316 339 343 340 342 342 341 339 332 331 330 321 311 303 314 319 300 292 310 329 344 49 162 207 339 333 311 320 329 328 335 333 332 323 320 330 322 320 320 322 342 358 2 0 264 252 198 226 256 249 320 325 285 276 265 306 297 305 328 288 245 193 197 175 209 209 223 265 271 267 258 251 230 214 223 238 256 323 277 215 199 195 202 215
18 27 17 348 325 335 337 330 335 339 338 333 329 328 327 323 312 305 322 327 304 281 280 324 316 198 143 178 252 294 299 314 327 329 337 337 338 329 321 313 299 310 299 282 284 279 287 247 232 293 222 221 264 99 11 296 247 287 303 311 302 320 311 282 240 191 199 182 238 254 251 264 272 277 279 281 266 233 222 216 93 69 150 159 150 147 139 115
25 32 25 358 346 345 333 317 330 343 340 330 323 325 334 337 317 304 329 341 337 262 246 356 11 199 14 290 274 292 304 316 321 327 340 344 342 332 323 312 303 311 297 274 215 205 301 288 218 276 280 185 88 84 180 261 268 281 290 278 281 292 277 275 243 138 184 223 258 262 258 272 282 284 290 294 285 243 176 95 98 126 143 136 129 119 108 97
42 34 27 15 5 357 345 327 332 347 348 336 333 347 356 342 313 282 342 354 43 92 109 49 48 44 335 294 300 311 315 320 325 326 334 345 343 335 333 318 287 272 271 294 139 177 8 305 235 245 348 107 84 57 29 347 344 291 292 263 262 267 268 275 246 126 87 327 257 260 268 279 281 282 298 298 275 125 124 127 137 145 130 121 115 105 97 90
56 51 42 27 13 7 8 5 351 358 1 359 11 17 4 350 333 331 344 358 47 53 77 75 51 74 1 318 331 349 339 319 312 314 329 345 346 346 4 326 277 246 202 93 311 278 86 258 245 68 41 62 78 58 33 5 281 275 264 266 268 261 270 295 107 147 106 55 269 273 281 279 278 286 296 285 144 127 141 141 144 137 122 114 108 101 98 90
80 74 51 28 20 19 19 14 4 7 11 16 32 28 8 6 4 346 336 334 342 350 94 67 45 25 341 336 346 2 351 313 283 296 323 341 349 348 337 318 280 272 141 219 251 293 262 219 125 73 66 70 81 71 14 257 253 251 239 263 269 256 279 16 94 150 135 109 273 287 298 284 281 285 288 249 122 113 123 127 132 131 122 112 106 101 97 84
82 66 45 28 22 24 24 18 10 8 8 13 22 12 358 357 355 345 328 295 284 287 223 40 73 340 325 321 331 351 349 316 303 304 320 340 355 322 316 320 300 307 312 271 282 310 288 157 93 54 100 115 123 134 204 250 240 229 224 242 261 299 353 290 111 124 227 225 268 295 302 282 281 276 306 87 106 112 119 120 119 119 113 107 108 103 89 76
66 46 36 24 15 19 25 22 13 8 7 8 7 360 354 348 346 346 326 284 254 245 247 291 324 291 302 308 327 351 347 312 300 296 313 334 339 310 305 347 326 298 307 22 356 278 263 91 68 20 174 263 262 174 207 244 258 231 216 229 258 328 28 252 319 328 292 267 274 310 297 273 268 185 138 88 107 119 123 128 125 118 114 119 119 96 80 72
53 39 31 23 19 19 20 17 9 6 4 6 3 356 355 350 344 346 328 275 248 243 246 307 328 306 317 328 336 339 320 305 289 292 309 322 327 314 304 296 277 297 55 28 315 265 249 86 43 203 198 253 246 237 221 216 270 274 241 324 355 33 29 316 329 333 311 298 245 349 314 288 255 171 159 123 128 134 137 144 137 133 134 130 105 83 73 67
47 38 33 29 28 24 20 8 359 1 2 358 356 352 351 348 345 348 338 271 258 275 312 335 320 330 343 350 344 331 314 294 302 310 321 338 6 351 317 247 206 12 29 316 279 269 179 111 41 249 239 236 231 264 242 187 248 293 290 10 33 37 3 302 320 337 293 295 254 181 240 277 311 292 165 148 151 142 150 161 151 157 156 113 86 76 66 59
48 36 35 32 25 21 19 4 352 360 1 351 348 347 343 341 344 346 337 252 260 329 8 352 312 316 330 332 336 332 304 305 315 332 29 16 3 346 297 265 199 233 31 323 300 243 130 117 139 258 246 239 235 265 242 160 158 264 253 15 22 348 296 279 306 273 246 298 280 204 182 252 294 296 156 149 147 144 165 175 153 144 116 87 77 70 64 55
41 24 23 20 10 7 4 353 350 357 356 348 346 344 338 334 335 340 332 260 287 339 5 3 330 332 337 330 333 328 278 315 314 347 10 341 334 306 236 273 295 280 204 183 269 259 115 146 202 196 204 236 240 331 359 109 146 249 219 62 330 268 270 282 287 259 261 307 290 211 160 214 271 251 149 145 137 139 151 129 95 78 71 71 70 65 61 54
357 349 353 350 349 352 347 341 345 350 350 348 345 341 335 327 328 343 208 279 327 46 355 347 345 347 343 331 326 273 296 330 310 312 331 331 317 231 243 273 299 305 249 211 232 278 68 149 190 174 191 220 76 55 7 359 112 333 266 238 253 237 243 256 236 259 271 270 269 219 171 224 279 251 150 130 105 110 108 81 72 70 64 61 62 62 59 54
320 325 329 328 331 338 339 338 339 342 345 346 343 338 329 317 326 34 253 274 23 36 352 358 354 345 349 343 320 60 336 6 335 316 313 300 274 257 259 273 265 271 259 225 240 250 124 120 80 14 256 15 34 55 37 41 50 343 296 271 263 225 189 208 219 245 276 257 267 192 177 268 303 342 63 78 71 104 112 85 68 68 61 55 58 61 57 48
306 314 314 318 323 328 333 335 333 336 342 344 341 338 331 308 162 342 288 256 61 347 340 26 2 348 9 21 339 344 355 332 341 334 311 288 276 249 262 284 265 281 282 238 251 215 125 118 165 58 11 13 10 128 102 59 47 358 288 288 301 276 133 157 222 180 193 258 293 11 335 301 224 228 71 104 79 86 97 83 71 64 57 55 57 57 51 41
307 310 311 316 319 321 325 328 330 335 341 344 341 340 339 329 41 345 325 329 342 344 353 43 0 355 5 15 257 332 348 311 337 359 340 327 313 282 317 348 27 339 323 356 322 272 187 256 113 86 57 155 249 243 66 40 128 235 268 309 331 320 289 268 241 218 227 214 180 72 11 273 236 150 130 125 89 85 93 91 93 78 62 58 53 48 44 35
311 312 313 316 317 319 321 323 329 336 340 343 341 341 348 342 334 303 336 344 330 322 327 269 293 326 340 327 303 339 320 259 342 2 243 302 297 350 16 13 15 328 262 342 331 316 320 317 38 82 71 115 289 303 20 31 226 239 260 10 351 329 309 289 278 267 271 226 187 163 62 267 267 129 127 120 104 106 99 93 94 83 72 63 53 44 37 29
309 312 312 314 316 317 318 321 326 334 339 340 341 345 0 340 351 124 352 5 355 281 269 279 311 310 322 12 355 356 326 255 320 322 261 207 274 9 39 21 18 0 271 303 327 323 307 288 297 10 176 201 326 53 136 261 287 252 202 84 130 262 265 266 297 295 286 302 273 211 232 277 267 153 126 114 111 109 95 83 81 78 69 56 46 37 28 19
310 312 313 314 315 316 316 318 323 329 333 338 342 341 321 332 7 35 358 341 346 323 303 283 346 316 282 81 344 16 44 260 304 327 265 233 348 19 46 30 23 16 337 312 344 350 278 257 298 42 14 131 60 75 137 261 305 258 74 62 179 217 261 272 299 285 275 293 285 187 241 283 77 120 132 123 112 100 83 70 72 69 56 46 38 30 24 15
315 318 321 321 321 321 319 318 321 324 334 349 355 306 323 36 14 12 351 304 318 328 313 313 49 328 304 61 293 323 81 226 307 347 290 202 46 38 58 45 6 14 33 358 323 354 321 274 193 130 23 36 69 317 310 81 337 301 65 327 230 193 152 288 291 282 267 279 253 186 225 241 98 122 154 131 93 83 76 65 66 58 46 42 35 27 21 10
323 326 328 329 332 331 329 329 329 331 350 5 354 282 18 103 354 349 0 335 316 297 314 318 50 12 339 356 342 351 1 257 310 338 294 321 48 17 46 69 4 8 43 33 327 56 346 285 236 129 23 3 172 291 292 283 357 64 207 289 286 179 106 103 298 311 298 269 240 190 233 247 202 221 187 103 46 60 70 57 55 46 34 31 29 23 14 4
328 332 331 339 347 344 341 342 342 0 13 342 240 191 28 47 25 14 4 341 315 280 314 312 283 79 20 342 333 0 357 342 348 339 312 315 7 0 25 65 30 20 18 2 331 18 342 294 283 35 15 184 171 298 293 283 304 209 255 289 323 112 314 194 219 302 282 274 270 240 251 263 259 192 149 50 26 50 55 46 44 31 23 23 21 14 4 358
336 343 336 346 355 351 351 353 1 28 358 310 308 22 52 57 47 32 12 2 339 319 327 336 339 55 26 331 319 340 15 356 336 334 340 344 2 20 29 19 31 32 1 350 335 337 338 278 273 303 235 137 132 217 220 217 230 236 284 311 69 149 207 187 197 260 248 272 284 266 248 276 297 134 108 43 43 56 43 32 31 21 19 20 14 6 1 355
350 351 323 340 349 349 354 11 26 9 307 7 36 25 74 82 59 32 12 21 30 354 358 2 349 332 330 344 350 356 10 265 292 291 310 352 15 32 34 17 357 351 342 339 318 323 316 241 265 307 333 53 183 211 185 145 155 152 210 200 156 224 192 34 282 196 207 259 277 289 284 192 201 136 75 54 54 58 42 34 27 17 15 14 8 3 358 350
0 348 318 336 341 339 349 22 36 12 351 69 70 48 38 83 65 14 7 19 44 28 30 348 322 316 324 334 4 26 320 289 289 267 278 358 41 32 28 12 345 332 329 324 294 312 301 254 280 299 282 275 246 221 357 0 211 129 194 196 187 196 129 344 291 211 144 258 247 283 281 246 221 68 66 64 63 56 45 38 22 12 9 5 4 1 353 345
11 345 321 331 336 337 350 35 31 10 20 50 71 59 36 53 69 15 16 33 47 39 26 297 259 257 325 348 359 3 339 296 298 313 294 23 45 356 329 346 328 308 297 286 207 179 287 257 273 272 263 270 290 213 356 341 320 355 342 309 43 76 134 215 264 307 15 275 292 271 270 271 230 79 70 75 74 55 39 29 15 6 3 0 359 355 347 341
359 323 320 337 350 357 16 44 12 20 67 89 116 79 41 44 42 23 28 25 30 8 305 285 65 16 7 35 359 347 12 301 277 332 2 0 32 203 235 315 300 276 260 247 170 49 330 231 242 267 264 264 71 249 331 1 354 0 262 176 66 66 109 157 227 111 120 249 267 260 261 254 164 81 54 58 65 52 32 22 10 360 359 359 355 348 341 336
338 317 328 360 11 14 48 68 14 34 83 136 131 67 50 63 41 26 52 35 18 358 313 327 60 23 17 45 328 309 16 349 307 62 17 318 252 197 229 280 252 306 1 224 336 20 341 247 345 316 297 314 14 342 356 5 2 352 333 71 79 92 85 85 207 84 201 225 213 225 254 241 232 20 25 34 41 32 18 13 6 0 0 357 350 343 337 333
350 337 352 17 24 35 75 87 21 36 83 87 80 49 9 65 57 21 34 27 9 352 332 343 24 346 333 40 253 265 249 227 248 87 180 263 255 192 226 253 222 301 319 265 314 359 306 271 303 303 288 295 305 323 11 333 321 316 314 73 82 115 119 131 308 76 234 247 216 230 260 300 334 359 18 21 14 7 4 3 1 0 358 352 344 338 332 330
3 0 353 8 27 48 76 78 39 28 72 32 53 37 336 357 91 91 56 29 0 337 293 271 317 290 249 237 259 270 239 199 214 253 255 277 293 174 208 272 247 271 293 302 316 323 295 283 258 243 248 264 281 292 323 342 311 289 287 273 188 139 127 127 78 196 251 315 291 256 308 329 331 352 15 11 3 359 354 357 359 357 352 345 338 332 330 335
22 23 358 349 18 45 66 59 39 34 48 25 62 65 4 351 101 83 73 115 344 338 257 230 242 234 232 272 298 282 260 196 218 249 271 272 288 333 231 218 238 265 275 292 287 211 283 276 252 244 254 264 284 296 308 315 292 279 290 283 179 142 128 147 191 251 327 339 280 309 354 330 321 348 7 359 358 353 352 357 356 351 345 338 331 328 336 350
35 81 67 37 26 37 39 28 27 33 39 29 66 94 17 3 33 12 326 208 263 294 233 217 218 229 246 272 310 295 304 291 249 249 316 306 330 339 283 180 174 239 235 228 213 91 286 273 261 242 272 283 289 284 280 278 274 270 278 278 218 154 150 170 221 265 304 291 275 323 339 315 314 347 358 357 357 353 354 352 347 345 339 330 328 335 352 356
42 69 71 72 72 66 22 8 14 20 34 36 73 80 16 7 27 308 246 238 230 207 215 244 207 257 295 300 300 282 303 318 303 299 29 329 303 299 282 278 168 206 219 214 177 109 267 265 213 174 280 288 281 271 265 260 267 267 258 265 256 156 171 191 228 265 287 294 298 318 315 300 317 7 1 356 355 351 348 345 344 342 333 329 338 353 356 349
31 41 55 103 96 63 30 16 355 318 1 42 44 22 336 0 25 286 230 226 266 187 174 285 340 356 322 286 247 261 312 358 321 302 3 348 312 303 272 347 46 202 228 210 136 93 140 246 330 256 275 289 283 271 263 243 240 256 269 268 207 143 228 235 257 335 338 319 307 309 303 292 343 19 3 353 351 348 345 346 345 338 333 340 355 356 349 346
14 9 35 118 98 46 23 357 318 303 21 20 358 321 308 15 16 319 269 210 280 344 8 338 343 339 298 256 236 261 350 6 312 291 300 278 277 293 284 346 21 3 243 148 79 170 158 282 319 328 292 293 285 225 252 256 241 249 325 338 26 64 356 346 6 356 338 317 306 308 305 291 350 6 355 346 348 345 344 346 337 330 337 356 0 351 347 347
15 30 36 335 32 51 6 320 322 26 54 317 328 322 304 339 2 346 327 227 342 349 337 333 334 323 297 272 259 301 333 322 298 287 282 267 266 276 277 290 325 304 248 319 102 163 93 312 316 325 293 292 310 292 288 294 283 274 10 357 5 41 27 7 356 343 329 319 308 304 309 323 351 355 345 342 347 344 344 341 330 329 348 1 355 351 348 345